Other Public Products
Issued by NWS Grand Forks, ND

Home | Current Version | Previous Version | Text Only | Print | Product List | Glossary Off
Versions: 1 2 3 4 5 6 7 8 9 10 11 12 13 14 15 16 17 18 19 20 21 22 23 24 25 26 27 28 29 30 31 32 33 34 35 36 37 38 39 40 41 42 43 44 45 46 47 48 49 50

000
FPUS83 KFGF 071010
OPUFGF
PRAIRIE TO PINES WEATHER ROUNDUP
NATIONAL WEATHER SERVICE EASTERN NORTH DAKOTA/GRAND FORKS ND
500 AM CDT TUE JUL 07 2015

 **SATELLITE DATA USED TO AUGMENT SKY COVER AT AUTOMATED STATIONS**
 *****  WEATHER ACROSS EASTERN NORTH DAKOTA  *****

CITY           SKY/WX    TMP DP  RH WIND       PRES   REMARKS
GRAND FORKS    CLEAR     44  42  93 SW3       30.17S
GRAND FORKS AF CLEAR     44  42  93 W5        30.17S
GRAND CITY NWS   N/A     45 N/A N/A MISG        N/A
BUXTON         NOT AVBL
DEVILS LAKE    CLEAR     55  45  67 S10       30.17S
FARGO          CLEAR     46  42  86 CALM      30.18S
WAHPETON ARPT  SUNNY     43  37  81 N3        30.19S
$$

 *****  WEATHER ACROSS CENTRAL AND WESTERN NORTH DAKOTA  *****

CITY           SKY/WX    TMP DP  RH WIND       PRES   REMARKS
JAMESTOWN      CLEAR     49  46  90 CALM      30.19F
BISMARCK       CLEAR     46  45  96 NE3       30.20S
MINOT          CLEAR     50  44  80 CALM      30.16F
MINOT AFB      CLEAR     45  45 100 S3        30.16S
GARRISON         N/A     48  45  89 CALM      30.17F
WILLISTON      CLEAR     52  48  86 CALM      30.15F
DICKINSON      PTCLDY    50  47  89 SE8       30.16F FOG
HETTINGER      CLEAR     51  49  92 E7        30.19F FOG
$$

 *****  OTHER OBSERVATIONS NORTHEAST NORTH DAKOTA  *****

CITY           SKY/WX    TMP DP  RH WIND       PRES   REMARKS
WALHALLA       FAIR      48  48 100 MISG      30.16F
LANGDON        FAIR      43  43 100 SW6       30.18S
CAVALIER       FAIR      46  45  93 W6        30.16S
GRAFTON        FAIR      46  46 100 SW7       30.17S
CANDO          FAIR      45  43  93 SW5       30.18S
FORT TOTTEN      N/A     48  46  93 SE2       29.95S
ROLLA          FAIR      45  45 100 SW6       30.18F
RUGBY          NOT AVBL
 ***** THE ABOVE OBSERVATIONS ARE NON NWS ARE NOT QUALITY
        CONTROLLED AND MAY MIS-REPORT RAIN FOR SNOW...
$$

 *****  OTHER OBSERVATIONS SOUTHEAST NORTH DAKOTA *****

CITY           SKY/WX    TMP DP  RH WIND       PRES   REMARKS
COOPERSTOWN    NOT AVBL
VALLEY CITY    FAIR      45  45 100 S3        30.20S
OAKES            N/A     46  46 100 W3        30.20S FOG
GWINNER          N/A     48  45  87 NW6       30.20S
SHEYENNE NWR     N/A     43  42  98 NW2       29.95S
BUFFALO        NOT AVBL
WYNDMERE         N/A     45  43  93 NW3         N/A
 ***** THE ABOVE OBSERVATIONS ARE NON NWS ARE NOT QUALITY
       CONTROLLED AND MAY MIS-REPORT RAIN FOR SNOW...
$$

  *****  WEATHER ACROSS NORTHERN MINNESOTA  *****

CITY           SKY/WX    TMP DP  RH WIND       PRES   REMARKS
FLAG ISLAND    CLEAR     52  46  82 NW9       30.12R
WARROAD        CLEAR     46  43  87 W6        30.15R
ROSEAU         CLEAR     48  43  81 W6        30.15R
HALLOCK        CLEAR     41  39  93 CALM      30.16S
THF RVR FALLS  CLEAR     46  45  93 CALM      30.17R
HALSTAD        NOT AVBL
FOSSTON        CLEAR     37  37 100 CALM      30.17S
BAUDETTE       CLEAR     45  42  89 W7        30.13R
WASKISH        CLEAR     52  46  82 NW8       30.14S
CROOKSTON      CLEAR     46  45  93 CALM      30.18S
$$
  *****  WEATHER ACROSS CENTRAL AND WEST MINNESOTA  *****

CITY           SKY/WX    TMP DP  RH WIND       PRES   REMARKS
BEMIDJI        CLEAR     41  40  97 NW7       30.15S
PARK RAPIDS    CLEAR     47  44  90 NW5       30.16R
WADENA         CLEAR     45  43  93 CALM      30.16R
DETROIT LAKES  CLEAR     46  45  93 NW3       30.18S
MOORHEAD       CLEAR     46  45  93 CALM      30.19S
FERGUS FALLS   CLEAR     48  46  93 N3        30.18S
ELBOW LAKE     FAIR      49  47  93 N5        30.17S
MORRIS MN      CLEAR     46  46 100 NW5       30.17R
STAPLES        CLEAR     46  45  93 NW3       30.16R
WHEATON        CLEAR     46  45  93 CALM      30.20S
$$
  *****  WEATHER ELSEWHERE ACROSS MINNESOTA  *****

CITY           SKY/WX    TMP DP  RH WIND       PRES   REMARKS
DULUTH         MOCLDY    53  43  68 N6        30.10R
INTRNTL FALLS  CLEAR     38  37  97 CALM      30.11R
ELY            CLOUDY    50  45  81 NW5       30.09R
CLOQUET        CLOUDY    50  43  76 NW6       30.11R
BRAINERD       CLEAR     50  46  86 NW3       30.15R
HIBBING        CLEAR     40  38  93 CALM      30.12R
ALEXANDRIA     CLEAR     50  47  89 N6        30.18R
SAINT CLOUD    CLEAR     49  46  90 NW3       30.14R
MINNEAPOLIS    CLEAR     55  47  74 N10       30.10R
$$

  *****  WEATHER ACROSS SOUTH DAKOTA  *****

CITY           SKY/WX    TMP DP  RH WIND       PRES   REMARKS
SIOUX FALLS    CLEAR     51  48  89 N6        30.17R
BROOKINGS      CLEAR     50  45  81 N5        30.19R
WATERTOWN      CLEAR     47  44  90 N5        30.18S
HURON          CLEAR     52  51  97 N3        30.18R FOG
SISSETON         N/A     46  43  89 NW5       30.18S
ABERDEEN       CLEAR     51  48  89 NE3       30.20S
MITCHELL       CLEAR     55  54  96 CALM      30.18S FOG
PIERRE         CLEAR     53  51  93 E6        30.17R FOG
MOBRIDGE       CLEAR     56  52  86 E7        30.17S
RAPID CITY     MOCLDY    57  55  93 SE3       30.17F
$$

  *****  SOME WEATHER IN NEARBY STATES *****

CITY           SKY/WX    TMP DP  RH WIND       PRES   REMARKS
GLASGOW MT     PTCLDY    54  48  80 E12       30.08F
GREAT FALLS MT CLEAR     51  47  86 CALM      30.06F
CHEYENNE WY    CLOUDY    54  52  93 S10       30.27F FOG
SCOTTSBLUFF NE CLOUDY    61  56  83 E3        30.21S HAZE
OMAHA NE       CLEAR     56  52  86 N7        30.10R
DES MOINES IA  CLEAR     60  52  74 N12       30.03R
DAVENPORT IA   PTCLDY    60  57  89 N6        29.95R FOG
CHICAGO IL     LGT RAIN  60  58  92 N23G29    29.88R
EAU CLAIRE WI  CLEAR     50  45  83 NW3       30.05R
LA CROSSE WI   CLOUDY    59  53  80 N12       30.02R
$$

  *****  SOME NATIONAL WEATHER *****

CITY           SKY/WX    TMP DP  RH WIND       PRES   REMARKS
LA GUARDIA NY  CLOUDY    75  71  87 S8        30.04S
RALEIGH NC     PTCLDY    72  69  90 S3        30.10R
ATLANTA GA     PTCLDY    71  68  90 W3        30.15R
NEW ORLEANS LA MOCLDY    81  76  84 SE3       30.10F
OKLAHOMA CITY  CLOUDY    71  70  96 W5        29.94R
ALBUQUERQUE NM RAIN      62  59  90 E10       30.21F
SALT LAKE CITY MOCLDY    68  59  73 SE9       30.06R
LOS ANGELES CA CLOUDY    64  60  87 VRB3      29.98F
BOISE ID       CLOUDY    77  47  34 E6        29.97R
SEATTLE WA     CLEAR     58  52  80 SW8       30.05R
$$

*** WEATHER ACROSS MANITOBA...SASKATCHEWAN AND ONTARIO ***
                ***ONTARIO***

CITY           SKY/WX    TMP DP  RH WIND       PRES   REMARKS
GERALDTON      CLOUDY    50  45  81 NW7       29.96R
THUNDER BAY    MOCLDY    50  46  87 W5        30.04R
SIOUX LOOKOUT  PTCLDY    48  45  87 NW6       30.06R
TORONTO        MOCLDY    68  59  73 SW6       29.90S
BIG TROUT LK   MOCLDY    52  46  82 W8        29.88S
PICKLE LAKE    NOT AVBL
DRYDEN         CLEAR     45  43  93 W7        30.08R
KENORA         NOT AVBL
$$
                *** MANITOBA***

CITY           SKY/WX    TMP DP  RH WIND       PRES   REMARKS
BRANDON        PTCLDY    41  39  93 W3        30.15S
DAUPHIN        CLEAR     54  43  66 SW13      30.08S
ISLAND LAKE    PTCLDY    57  46  67 W10       29.95F
PILOT MOUND      N/A     41  41 100 SW6         N/A
THE PAS        CLEAR     52  45  76 SW8       29.94F SMOKE
THOMPSON       CLEAR     54  45  71 S5        29.82F SMOKE
WINNIPEG       PTCLDY    50  43  76 SW9       30.14S
LYNN LAKE      HAZE      59  46  63 SW12      29.73F VSB 1
CHURCHILL      PTCLDY    50  48  93 NW10      29.71S
GILLAM           N/A     54  48  82 SW9       29.78F SMOKE
$$
                ***SASKATCHEWAN***

CITY           SKY/WX    TMP DP  RH WIND       PRES   REMARKS
ESTEVAN        PTCLDY    45  43  93 S7        30.14F
KINDERSLEY     MOCLDY    55  48  76 S5        30.03F
LLOYDMINSTER   PTCLDY    52  48  87 NW8       30.03R
PRINCE ALBERT  PTCLDY    46  46 100 SW3       29.98F FOG
REGINA         CLOUDY    52  45  76 S9        30.10S


USA.gov is the U.S. government's official web portal to all federal, state and local government web resources and services.